Regional Weather Roundup
Issued by NWS Jackson, KY

Home | Current Version | Previous Version | Text Only | Print | Product List | Glossary On
Versions: 1 2 3 4 5 6 7 8 9 10 11 12 13 14 15 16 17 18 19 20 21 22 23 24 25 26 27
000
ASUS43 KJKL 251810
RWRJKL

EAST KENTUCKY HOURLY WEATHER ROUNDUP
NATIONAL WEATHER SERVICE JACKSON KY
200 PM EDT MON JUL 25 2016

NOTE: "FAIR" INDICATES FEW OR NO CLOUDS BELOW 12,000 FEET WITH
NO SIGNIFICANT WEATHER AND/OR OBSTRUCTIONS TO VISIBILITY.

* THESE REPORTS ARE NOT UNDER NWS QUALITY CONTROL AND MAY NOT
  REPORT WEATHER SUCH AS PRECIPITATION AND FOG.

KYZ079-080-083-085-087-088-110-112-115-119-120-251900
...EASTERN KENTUCKY...

CITY           SKY/WX    TMP DP  RH WIND       PRES   REMARKS
JACKSON        MOSUNNY   92  74  55 VRB5      30.05F HX 101
6HR MIN TEMP:  77; 6HR MAX TEMP:  92;

LONDON         LGT RAIN  86  72  62 W6        30.06F HX  92
6HR MIN TEMP:  74; 6HR MAX TEMP:  92; 6HR PCP: TRACE;

SOMERSET*      MOSUNNY   88  70  55 W6        30.05F HX  92
MONTICELLO*    MOSUNNY  N/A N/A N/A W15       30.06F
WILLIAMSBURG*  MOCLDY    90  73  58 W6        30.06F HX  98
MIDDLESBORO*   MOSUNNY   92  73  54 NW5       30.06F HX 100
6HR MIN TEMP:  73; 6HR MAX TEMP:  92;

HARLAN APT*      N/A     90  68  48 W3        30.07F HX  93
PIKE CO APT*     N/A     87  75  67 CALM      30.07F HX  97
BIG SANDY APT* CLOUDY    91  74  58 W7        30.05F HX 100
6HR MIN TEMP:  77; 6HR MAX TEMP:  91;

MOREHEAD APT*  LGT RAIN  75  72  88 SE6G15    30.07R
ASHLAND*       PTSUNNY   91  79  66 SW7       29.97F HX 107
$$

KYZ035-036-041-042-044-050-067-078-099-251900
...CENTRAL KENTUCKY...

CITY           SKY/WX    TMP DP  RH WIND       PRES   REMARKS
MT STERLING*   MOSUNNY   90  77  66 W5        30.04F HX 102
FLEMING/MASON* CLOUDY    83  73  70 E8        30.04R
DANVILLE*      CLOUDY    84  72  65 SW8G16    30.05S
RICHMOND*      CLOUDY    75  72  88 SE8       30.05R
LEXINGTON      MOSUNNY   93  73  52 W8        30.02F HX 102
6HR MIN TEMP:  77; 6HR MAX TEMP:  93;

FRANKFORT      RAIN      80  72  76 NW14      30.01F
6HR MIN TEMP:  79; 6HR MAX TEMP:  93;

LOUISVILLE     CLOUDY    93  74  53 W9G17     29.99F HX 103
6HR MIN TEMP:  82; 6HR MAX TEMP:  93; 6HR PCP: TRACE;

LEBANON*       MOCLDY    90  77  66 SW6       30.03F HX 102
GLASGOW*       PTSUNNY   88  74  62 W5        30.03F HX  96
BOWLING GREEN  PTSUNNY   92  75  57 SW9       30.02F HX 103
6HR MIN TEMP:  80; 6HR MAX TEMP:  92;

$$

KYZ091>093-OHZ055-061-077-WVZ005-015-034-035-042-251900
...SOUTHERN OHIO/WEST VIRGINIA...

CITY           SKY/WX    TMP DP  RH WIND       PRES   REMARKS
COVINGTON      CLOUDY    90  75  61 W8        30.00F HX 100
COLUMBUS       PTSUNNY   91  69  48 W12       29.98F HX  96
DAYTON         PTSUNNY   87  68  52 W12       30.03F HX  90
WILMINGTON     MOSUNNY   90  74  59 W9        30.00F HX  99
HUNTINGTON       N/A     92  74  55 W10       30.00F HX 101
CHARLESTON     PTSUNNY   90  73  57 VRB6      30.01F HX  98
PINEVILLE*       N/A     91  68  46 MISG      30.13F HX  95
BECKLEY          N/A     84  70  62 W7        30.13F
BLUEFIELD      PTSUNNY   81  70  69 NW7       30.16F
LOGAN CO APT*    N/A     88  75  66 SW3       30.06F HX  97
$$

VAZ002-007-008-TNZ017-027-036-066-071-251900
...SOUTHWEST VIRGINIA/EAST TENNESSEE...

CITY           SKY/WX    TMP DP  RH WIND       PRES   REMARKS
WISE*            N/A     81  63  54 E5        30.17F
JONESVILLE*      N/A     90  73  58 S8        30.09F HX  98
ABINGDON*        N/A     90  66  45 W7        30.12F HX  93
BRISTOL        MOSUNNY   92  68  45 SW8       30.08F HX  96
MORRISTOWN*    PTCLDY    90  72  55 N8G17     30.07S HX  96
SEVIERVILLE*     N/A     91  68  46 W8        30.05R HX  95
KNOXVILLE      MOSUNNY   93  69  45 W7        30.04F HX  98
OAK RIDGE      MOSUNNY   95  68  41 W7        30.06F HX  99
CROSSVILLE     MOSUNNY   87  69  54 W6        30.12F HX  91
NASHVILLE      CLOUDY    90  73  57 NW5       30.03F HX  98
$$

...KEY TO REMARKS...
VSB - VISIBILITY IN MILES
WCI - WIND CHILL INDEX
HX  - HEAT INDEX

$$




USA.gov is the U.S. government's official web portal to all federal, state and local government web resources and services.